Location: Ferintosh
(52.7647°N, 112.9692°W)
Time: 18:16:50
(UTC+00:00)

S-56A Canister/Altair - Pass Details

Date: 24 May 2024
Orbit: 637 x 2489 km, 38.9° (Epoch: 15 June)

Event Time Altitude Azimuth Distance (km) Brightness Sun altitude
Rises 13:52:17 0° 233° (SW) 5,907 11.5 20.0°
Reaches altitude 10° 13:56:57 10° 225° (SW) 4,691 11.1 20.7°
Maximum altitude 14:07:22 32° 169° (S) 2,653 10.5 22.3°
Drops below altitude 10° 14:15:01 10° 110° (ESE) 3,414 12.2 23.4°
Sets 14:17:50 0° 101° (E) 4,140 12.6 23.9°
